Vorticity
6 6 6 5 8 11 11 7 4 4 4 2 2 4 6 7 6 6 5 6 14 11 12 13 14 10 11 7 8 4 -1 -3 16 11 6 12 11 10 9 14 14 9 15 17 -9 11 15
4 4 4 6 6 6 10 11 10 8 5 4 4 4 7 7 7 8 4 2 15 11 9 9 10 13 8 6 12 11 15 14 5 11 6 14 9 7 18 17 5 23 5 -5 11 6 14
4 5 4 4 4 6 6 7 9 13 11 9 10 7 7 7 7 8 5 -0 14 13 16 11 6 13 14 9 8 13 17 11 6 12 9 14 12 10 13 2 14 -7 35 17 23 -10 12
3 4 5 5 6 8 6 6 7 7 10 9 13 8 8 7 8 8 9 2 10 21 5 21 12 5 7 7 5 13 9 10 12 12 11 10 11 12 8 0 24 10 14 13 15 13 1
4 5 6 7 7 8 10 7 6 7 10 9 12 9 8 7 9 8 12 6 5 6 17 -2 24 24 4 10 10 13 14 11 10 7 13 10 9 12 3 4 15 12 16 20 11 5 6
4 5 6 5 5 6 8 9 8 8 9 9 11 10 10 8 10 10 12 8 -2 9 10 15 13 15 13 11 11 10 13 11 9 9 11 11 13 14 5 5 11 21 -1 26 14 16 6
4 5 6 5 5 4 5 7 6 9 8 8 10 9 10 9 10 12 10 12 3 4 8 8 11 12 0 17 20 10 9 9 9 8 12 11 13 18 5 11 8 18 -1 11 13 23 13
5 6 5 4 4 3 4 6 4 6 7 8 9 9 8 9 10 13 8 16 3 -8 10 4 7 9 14 9 13 12 11 13 3 7 8 9 3 18 21 -0 3 7 19 -8 5 9 5
6 6 5 4 4 3 3 4 5 4 5 7 8 8 8 9 6 13 12 14 18 4 -9 5 5 7 11 7 13 11 10 8 6 7 1 10 13 12 10 15 12 7 10 23 1 29 8
6 7 4 3 3 3 3 4 4 5 5 5 7 6 6 9 11 10 10 15 18 17 -2 -10 9 -4 2 25 3 12 11 8 8 10 8 5 12 11 6 4 11 13 7 8 7 7 6
6 6 5 3 3 3 3 4 5 5 5 5 5 5 4 5 7 12 15 5 17 11 3 11 3 6 8 10 14 14 13 10 11 7 4 8 13 11 11 7 4 9 9 -3 10 29 6
6 6 5 3 4 3 3 4 5 6 5 5 5 4 3 5 6 10 17 7 14 17 -12 2 9 6 7 6 9 11 8 6 6 8 4 17 16 18 18 9 16 2 6 7 13 16 10
6 7 6 4 6 5 4 4 6 6 6 6 5 6 5 3 4 8 10 21 9 15 15 0 7 6 13 9 4 5 8 6 9 6 -6 14 21 8 5 10 7 13 8 16 13 12 1
7 6 7 6 6 5 4 5 6 5 6 6 7 6 6 5 3 4 3 8 13 8 12 9 15 14 9 8 4 10 10 6 7 9 16 5 10 12 3 15 3 13 8 -1 6 7 2
7 7 7 7 5 5 6 6 5 5 5 5 5 6 5 7 5 4 7 3 3 15 4 12 19 6 15 6 16 14 11 8 9 8 15 14 9 -7 7 9 8 20 11 9 4 11 11
7 7 6 6 6 6 5 5 5 5 5 5 4 5 6 7 7 4 5 7 7 5 5 6 15 14 7 9 17 12 15 6 13 -4 10 7 13 18 13 11 12 -1 15 9 11 9 9
7 6 6 6 5 5 5 5 5 5 5 5 4 4 7 8 6 10 7 5 5 5 5 7 6 10 9 10 7 10 3 17 2 11 14 19 18 -13 -3 18 18 11 2 4 3 3 6
7 7 6 6 5 5 4 5 5 5 5 5 5 5 3 9 6 12 4 6 7 3 4 4 6 7 3 8 17 18 -2 1 3 2 21 20 9 2 13 11 5 7 11 8 -7 19 5
7 6 6 6 6 5 6 5 5 5 5 6 5 4 3 13 3 8 0 4 11 6 6 3 4 6 4 5 16 -0 3 11 5 17 3 2 6 13 20 20 28 22 15 18 9 1 -4
7 6 7 6 7 7 8 8 7 7 7 7 9 8 4 -3 9 18 -7 8 11 7 5 10 2 8 8 2 13 -10 0 -7 1 7 19 17 2 7 -22 -19 -12 -5 -3 -17 17 0 2
7 6 7 7 8 8 9 9 9 8 9 9 7 7 7 -11 -7 -4 4 -4 7 7 5 8 4 5 11 5 0 23 -8 4 6 14 4 11 -2 20 21 20 10 4 7 8 10 8 -3
8 7 7 7 7 8 8 8 9 9 9 10 9 8 7 5 6 6 4 0 10 2 11 6 3 12 1 4 12 6 8 10 7 3 -0 11 3 5 -3 35 32 21 19 19 17 16 14
9 8 7 7 8 8 7 7 8 8 9 8 9 9 8 5 7 7 4 7 4 8 8 8 8 -3 5 7 9 6 5 6 4 6 6 14 13 -2 11 3 -1 45 67 47 30 24 38
9 9 9 9 9 8 9 8 7 8 8 8 8 9 9 6 8 7 7 5 4 4 4 7 6 5 6 8 5 6 9 12 14 10 14 4 12 25 -5 35 19 -14 -17 -7 39 26 15
10 10 10 10 9 9 9 9 9 8 9 10 8 9 8 6 9 8 9 9 7 5 5 4 5 5 10 5 12 16 7 31 31 27 24 19 10 5 2 8 -10 76 35 -0 -9 -17 19
11 10 10 9 9 10 10 9 10 10 8 10 10 9 8 7 3 10 9 8 8 9 7 6 7 14 18 17 0 15 -2 -2 19 3 9 15 8 -7 9 9 3 -6 -2 -9 -0 43 11
12 13 12 10 10 10 10 10 9 9 9 9 9 9 8 8 8 9 8 8 9 9 6 7 9 12 9 14 18 13 12 -6 -0 -1 1 19 16 0 3 -9 11 9 13 16 31 9 4
-1 -0 4 8 12 10 8 8 7 5 6 6 4 7 6 6 4 7 8 7 9 7 7 5 11 3 18 23 18 14 21 9 34 10 -2 8 7 6 38 15 25 16 -3 9 -4 0 -23
-7 -5 -1 0 3 -1 -2 0 0 -1 2 7 11 2 -0 1 -3 1 -2 -1 6 7 7 8 6 -8 -19 -4 -3 17 3 6 11 5 6 11 -5 -6 -10 -35 -44 -36 -26 1 0 -3 5
Height
3162 3160 3157 3156 3154 3151 3148 3146 3145 3143 3141 3138 3136 3133 3129 3125 3121 3117 3112 3106 3100 3096 3092 3088 3086 3083 3083 3082 3082 3080 3080 3079 3078 3078 3077 3078 3079 3081 3083 3086 3090 3092 3095 3101 3106 3109 3112
3163 3161 3159 3157 3154 3152 3149 3147 3145 3144 3141 3138 3135 3133 3129 3124 3121 3117 3113 3108 3102 3098 3094 3091 3088 3085 3085 3084 3082 3080 3079 3079 3078 3078 3078 3079 3080 3082 3083 3085 3088 3090 3095 3100 3104 3107 3110
3163 3162 3160 3158 3155 3152 3150 3147 3145 3143 3141 3138 3134 3132 3129 3124 3121 3117 3114 3110 3105 3100 3096 3093 3090 3088 3086 3086 3083 3081 3080 3079 3078 3078 3079 3079 3080 3082 3083 3086 3087 3090 3094 3097 3101 3104 3107
3163 3162 3161 3158 3155 3153 3151 3149 3146 3144 3141 3138 3135 3132 3128 3124 3121 3118 3114 3111 3107 3103 3099 3095 3092 3090 3088 3087 3084 3082 3081 3080 3079 3079 3079 3080 3080 3082 3084 3086 3088 3092 3094 3095 3099 3102 3105
3163 3162 3161 3159 3157 3155 3153 3150 3146 3144 3142 3139 3136 3132 3128 3125 3122 3119 3116 3112 3109 3105 3102 3098 3095 3092 3090 3088 3086 3084 3082 3081 3080 3080 3080 3080 3081 3082 3085 3087 3089 3090 3092 3093 3097 3100 3103
3162 3162 3161 3160 3158 3157 3154 3151 3148 3146 3143 3140 3137 3133 3130 3126 3123 3120 3117 3114 3112 3109 3105 3101 3098 3097 3094 3090 3087 3085 3084 3083 3083 3082 3082 3081 3082 3083 3085 3087 3089 3090 3093 3093 3095 3099 3101
3161 3161 3161 3161 3159 3157 3156 3153 3150 3147 3145 3141 3138 3134 3131 3128 3124 3121 3118 3116 3116 3112 3106 3103 3102 3098 3095 3093 3089 3087 3086 3085 3085 3084 3083 3083 3084 3083 3086 3088 3089 3090 3092 3093 3095 3097 3100
3160 3161 3160 3160 3159 3157 3157 3154 3151 3149 3146 3142 3139 3136 3132 3129 3125 3121 3119 3116 3114 3114 3109 3106 3104 3100 3097 3094 3092 3090 3089 3089 3088 3086 3086 3087 3085 3085 3086 3088 3089 3090 3091 3094 3095 3096 3098
3159 3159 3160 3160 3159 3157 3157 3154 3152 3150 3147 3144 3141 3138 3134 3130 3127 3122 3119 3117 3114 3113 3111 3109 3106 3103 3100 3098 3094 3092 3091 3090 3089 3088 3088 3088 3088 3087 3088 3089 3090 3091 3091 3093 3095 3095 3096
3157 3157 3157 3158 3159 3157 3156 3155 3152 3150 3148 3146 3143 3140 3136 3131 3129 3124 3120 3117 3114 3113 3112 3113 3109 3107 3104 3100 3098 3095 3093 3093 3091 3090 3089 3089 3089 3088 3088 3089 3090 3091 3092 3092 3093 3094 3094
3155 3156 3155 3156 3157 3157 3156 3154 3153 3150 3149 3146 3144 3141 3138 3133 3129 3125 3123 3118 3115 3114 3115 3116 3111 3109 3106 3104 3102 3099 3096 3094 3093 3092 3092 3091 3088 3088 3089 3089 3090 3091 3092 3092 3091 3091 3092
3153 3154 3155 3154 3155 3156 3155 3154 3152 3150 3149 3147 3144 3142 3139 3136 3132 3128 3122 3120 3117 3117 3116 3116 3113 3110 3108 3105 3103 3101 3099 3098 3095 3093 3092 3090 3088 3088 3088 3089 3090 3090 3091 3091 3090 3091 3091
3151 3151 3152 3153 3153 3155 3154 3153 3151 3150 3148 3146 3144 3141 3139 3137 3134 3130 3125 3122 3121 3118 3121 3118 3113 3110 3108 3105 3104 3102 3101 3099 3098 3096 3093 3091 3089 3089 3089 3089 3089 3090 3091 3090 3093 3092 3089
3147 3148 3149 3150 3150 3152 3152 3152 3150 3149 3147 3145 3144 3141 3139 3137 3135 3131 3128 3125 3122 3122 3119 3117 3114 3111 3109 3106 3104 3102 3101 3100 3099 3097 3095 3093 3091 3090 3090 3090 3089 3089 3091 3090 3092 3092 3087
3143 3144 3146 3147 3148 3148 3149 3149 3148 3147 3145 3144 3142 3141 3138 3136 3135 3132 3130 3127 3126 3123 3120 3116 3114 3111 3110 3108 3106 3102 3101 3100 3100 3098 3098 3094 3091 3090 3088 3088 3090 3088 3088 3090 3088 3087 3087
3138 3140 3142 3143 3144 3145 3145 3146 3145 3145 3143 3142 3140 3139 3138 3135 3133 3132 3130 3128 3125 3123 3120 3118 3115 3113 3110 3108 3106 3104 3101 3100 3099 3098 3096 3094 3090 3087 3087 3086 3086 3087 3088 3088 3087 3088 3086
3135 3136 3138 3139 3140 3142 3142 3141 3142 3141 3141 3140 3140 3137 3136 3134 3132 3131 3129 3126 3124 3123 3121 3119 3116 3113 3111 3108 3106 3105 3104 3101 3099 3097 3095 3092 3091 3088 3086 3084 3083 3084 3085 3086 3085 3084 3083
3131 3132 3134 3135 3136 3137 3138 3137 3137 3138 3138 3137 3136 3135 3134 3132 3132 3128 3127 3124 3123 3121 3119 3118 3116 3113 3110 3109 3106 3104 3104 3101 3099 3096 3093 3091 3088 3084 3082 3081 3081 3081 3080 3081 3082 3081 3079
3126 3128 3129 3130 3131 3132 3133 3134 3133 3133 3133 3133 3132 3131 3130 3129 3127 3125 3124 3123 3121 3120 3117 3114 3114 3113 3110 3108 3107 3103 3101 3101 3098 3095 3092 3090 3087 3084 3079 3080 3078 3077 3078 3078 3078 3077 3074
3121 3122 3124 3125 3126 3127 3127 3128 3128 3128 3127 3128 3128 3126 3125 3125 3124 3122 3121 3119 3118 3116 3115 3113 3111 3110 3108 3107 3105 3102 3099 3097 3095 3094 3091 3089 3084 3083 3082 3079 3077 3075 3075 3075 3075 3072 3068
3116 3116 3118 3119 3120 3121 3122 3122 3123 3122 3122 3123 3122 3120 3120 3120 3119 3118 3118 3116 3114 3113 3111 3111 3109 3107 3106 3104 3102 3098 3096 3094 3092 3090 3088 3086 3082 3078 3075 3072 3070 3067 3066 3067 3066 3065 3065
3109 3111 3112 3113 3114 3115 3116 3115 3115 3115 3115 3116 3116 3115 3114 3114 3113 3113 3111 3111 3111 3109 3108 3106 3105 3104 3103 3101 3099 3095 3094 3091 3088 3085 3083 3082 3078 3074 3068 3066 3062 3058 3057 3057 3057 3056 3054
3103 3105 3106 3107 3108 3109 3109 3110 3110 3109 3109 3108 3108 3108 3107 3108 3107 3107 3105 3105 3105 3105 3103 3101 3100 3099 3097 3097 3094 3091 3089 3087 3084 3082 3079 3077 3074 3072 3065 3063 3059 3053 3048 3050 3051 3050 3049
3097 3099 3100 3101 3102 3102 3103 3103 3104 3104 3102 3102 3102 3101 3100 3099 3100 3100 3099 3099 3099 3099 3097 3095 3094 3093 3093 3090 3088 3086 3083 3081 3079 3077 3075 3073 3071 3070 3063 3060 3059 3050 3048 3047 3045 3045 3045
3091 3092 3094 3094 3095 3095 3096 3096 3095 3096 3096 3095 3094 3094 3092 3089 3092 3094 3093 3092 3092 3091 3089 3087 3087 3086 3085 3084 3080 3078 3077 3074 3072 3070 3068 3069 3068 3066 3063 3058 3053 3043 3043 3043 3043 3043 3041
3085 3086 3087 3087 3087 3088 3088 3088 3088 3088 3087 3087 3086 3084 3082 3080 3082 3085 3084 3084 3083 3081 3080 3079 3079 3078 3079 3077 3076 3071 3071 3069 3067 3064 3064 3064 3064 3064 3061 3059 3051 3042 3042 3041 3040 3038 3038
3078 3079 3080 3081 3081 3081 3080 3080 3081 3080 3079 3080 3080 3078 3075 3069 3074 3075 3076 3074 3075 3074 3071 3071 3070 3070 3071 3068 3065 3065 3062 3063 3060 3059 3058 3058 3056 3056 3056 3054 3045 3040 3039 3039 3040 3040 3035
3072 3073 3074 3074 3074 3074 3074 3074 3073 3072 3071 3072 3072 3070 3067 3058 3059 3065 3065 3066 3067 3064 3063 3063 3062 3061 3060 3059 3058 3056 3050 3051 3048 3048 3049 3051 3051 3048 3048 3048 3043 3036 3036 3038 3037 3034 3033
3063 3064 3064 3065 3065 3065 3065 3065 3065 3064 3063 3061 3058 3062 3057 3049 3041 3051 3052 3056 3055 3055 3054 3049 3050 3053 3054 3051 3049 3047 3043 3040 3040 3036 3040 3039 3041 3042 3040 3032 3033 3032 3031 3032 3030 3028 3027